Regional Weather Roundup
Issued by NWS Mobile, AL

Home | Current Version | Previous Version | Text Only | Print | Product List | Glossary On
Versions: 1 2 3 4 5 6 7 8 9 10 11 12 13 14 15 16 17 18 19 20 21 22 23 24 25 26 27 28 29 30 31 32 33 34 35 36 37 38 39 40 41 42 43 44 45 46 47 48 49 50
000
ASUS44 KMOB 020010
RWRMOB
REGIONAL WEATHER ROUNDUP
NATIONAL WEATHER SERVICE MOBILE AL
700 PM CDT WED OCT 01 2014

NOTE: "FAIR" INDICATES FEW OR NO CLOUDS BELOW 12,000 FEET WITH NO
      SIGNIFICANT WEATHER AND/OR OBSTRUCTIONS TO VISIBILITY.

  * THESE STATIONS ARE PART OF THE UNIVERSITY OF SOUTH ALABAMA
    MESONET AND ARE NOT UNDER NWS OR FAA QUALITY CONTROL.

ALZ061>064-020100-
COASTAL ALABAMA

CITY           SKY/WX    TMP DP  RH WIND       PRES   REMARKS
MOBILE REG APT PTCLDY    76  73  91 SE7       29.94R
6HR MIN TEMP:  76; 6HR MAX TEMP:  84;

BROOKLEY FIELD PTCLDY    79  73  82 S6        29.95R
6HR MIN TEMP:  78; 6HR MAX TEMP:  83;

USA CAMPUS*      N/A     77  72  83 CALM      29.93R
DOG RIVER*     NOT AVBL


CITY           SKY/WX    TMP DP  RH WIND       PRES   REMARKS
MOUNT VERNON*  NOT AVBL
SARALAND*      NOT AVBL
BAY MINETTE*   NOT AVBL
LOXLEY*          N/A     75  72  88 S6        29.94S
ROBERTSDALE*     N/A     77  72  83 SE3       29.94R
FAIRHOPE*        N/A     75  72  88 SE5       29.93S
ELBERTA*         N/A     75  72  88 CALM      29.92F
FOLEY*         NOT AVBL
GRAND BAY*       N/A     77  73  88 CALM      29.92R
DAUPHIN ISLND* NOT AVBL
BON SCOUR NWR* NOT AVBL
GULF SHORES    MOCLDY    75  72  88 SE3       29.93S

$$

ALZ051>060-020100-
INTERIOR SOUTHWEST AND SOUTH CENTRAL ALABAMA

CITY           SKY/WX    TMP DP  RH WIND       PRES   REMARKS
GREENVILLE     PTCLDY    74  66  76 CALM      29.96R
6HR MIN TEMP:  74; 6HR MAX TEMP:  86;

EVERGREEN      PTCLDY    75  67  76 CALM      29.95R
6HR MIN TEMP:  75; 6HR MAX TEMP:  88;

CASTLEBERRY*   NOT AVBL
ATMORE*          N/A     77  72  83 S3        29.95S
DIXIE*           N/A     75  70  83 CALM      29.93R
ANDALUSIA/OPP  MOCLDY    78  66  66 CALM      29.95S
6HR MIN TEMP:  78; 6HR MAX TEMP:  92;

ANDALUSIA*       N/A     75  70  83 SE2       29.96R
FLORALA APT    MOCLDY    75  67  76 CALM      29.97R
6HR MIN TEMP:  75; 6HR MAX TEMP:  87;

FLORALA*         N/A     73  66  78 CALM      29.93R

$$

FLZ001>006-020100-
WESTERN FLORIDA PANHANDLE

CITY           SKY/WX    TMP DP  RH WIND       PRES   REMARKS
PENSACOLA      MOCLDY    77  70  79 SE6       29.94S
6HR MIN TEMP:  77; 6HR MAX TEMP:  84;

NAS PENSACOLA  MOCLDY    78  71  79 SE7       29.93S
6HR MIN TEMP:  78; 6HR MAX TEMP:  84;

MILTON         MOCLDY    76  68  76 S6        29.94S
6HR MIN TEMP:  76; 6HR MAX TEMP:  86;

WHTNG S FIELD  MOCLDY    76  70  82 S3        29.94S
6HR MIN TEMP:  76; 6HR MAX TEMP:  88;



CITY           SKY/WX    TMP DP  RH WIND       PRES   REMARKS
WALNUT HILL*   NOT AVBL
JAY*             N/A     77  68  73 S6        29.94S
DUKE FIELD     MOCLDY    76  74  92 S3        29.94F
CRESTVIEW      MOCLDY    78  69  73 CALM      29.97R
6HR MIN TEMP:  77; 6HR MAX TEMP:  87;

VALPARAISO     MOCLDY    78  70  77 SW2       29.94S
6HR MIN TEMP:  78; 6HR MAX TEMP:  85;

DESTIN         MOCLDY    81  70  69 CALM      29.95R
6HR MIN TEMP:  81; 6HR MAX TEMP:  85;


$$

MSZ076-079-020100-
INTERIOR SOUTHEAST MISSISSIPPI

CITY           SKY/WX    TMP DP  RH WIND       PRES   REMARKS
LEAKESVILLE*     N/A     79  68  69 S7        29.93R
AGRICOLA*      NOT AVBL

$$

MARINE OBSERVATIONS

STATION/POSITION TIME  TEMP    WIND        PRES    WAVE
                       AIR SEA DIR/SP/G            HT/PER
                 (UTC) (F)     (DEG/KT/KT) (MB)    (FT/S)
PASCAGOULA       0000   79     130/  7/  9 1013.3R
PETIT BOIS ISLND 0000   79     130/ 10/ 12 1013.7R
GRAND BAY        2200   79     130/ 10     1014.0S
E DAUPHIN ISLAND 2300   79     120/ 11/ 12 1013.2R
USCG MOBILE BAY  0000   79 79              1012.4R
STATE DOCKS      0000   79 81              1013.4R
WEEKS BAY        2300   79                   N/A
FORT MORGAN      0000   79     140/ 12/ 13 1013.1R
12 S ORANGE BCH  0000   79 82  130/ 12/ 14 1013.6S   1/ 3
PENSACOLA BAY    0000   80 81  160/  2/  6 1013.9R
64 S DAUPHIN ISL 2205   81 83  120/  8/ 10 1013.4    1/ 4
67 S FORT MORGAN 2300   80                 1013.5R

$$

SELECTED LOCATIONS ACROSS THE REGION

CITY           SKY/WX    TMP DP  RH WIND       PRES   REMARKS
NEW ORLEANS    CLOUDY    81  74  79 SE10      29.90R
GULFPORT       MOCLDY    79  74  84 SE10      29.92R
PASCAGOULA AP  MOCLDY    76  73  91 S3        29.93R
PASCAGOULA*      N/A     79  72  78 SE5       29.93R
HATTIESBURG    CLEAR     80  72  76 S6        29.92R
LAUREL         CLEAR    N/A N/A N/A SE3       29.93S
MERIDIAN       CLEAR     79  62  56 S3        29.92R
JACKSON        PTCLDY    82  67  60 SE8       29.90R
MONTGOMERY     PTCLDY    79  64  60 CALM      29.95R
TROY           PTCLDY    73  66  78 CALM      29.97R
KINSTON*       NOT AVBL
GENEVA*          N/A     73  68  83 CALM      29.97R
ASHFORD*         N/A     75  70  83 SE2       29.96R
DOTHAN         MOCLDY    75  67  76 CALM      30.00R
PANAMA CITY    MOCLDY    78  70  76 CALM      29.94R

$$




USA.gov is the U.S. government's official web portal to all federal, state and local government web resources and services.